Date String (YYYY-MM-DD hh:mm:ss) UTC,Instrument flags,Ambient pressure (hPa),Sample flow (lpm),Bypass flow (lpm),Sample temperature (°C),Ambient temperature (°C),ASC tube jacket temperature (°C),LED temperature (°C),Box temperature (°C),Sample RH (%),Span deviation,Mass concentration (μg/m³),Mass concentration (μg/m³),Mass concentration (μg/m³)
DateTimeUTC,F1_M11,P_M11,Q1_M11,Q2_M11,T1_M11,T2_M11,T3_M11,T4_M11,T5_M11,U1_M11,ZSPAN_M11,X0_M11,X2_M11,X1_M11
2022-10-16 15:00:00,,0835.6,5.00,0.00,29.6,28.1,00.0,38.5,31.4,17.6,0001.5,0013.22,0008.82,0008.26
2022-10-16 15:01:00,,0835.6,5.00,0.00,29.6,28.1,00.0,38.4,31.4,17.7,0001.8,0013.64,0008.80,0008.22
2022-10-16 15:02:00,,0835.6,5.00,0.00,29.6,28.1,00.0,38.4,31.4,17.6,0002.2,0013.99,0008.76,0008.19
2022-10-16 15:03:00,,0835.6,5.00,0.00,29.6,28.1,00.0,38.4,31.4,17.7,0002.3,0013.68,0008.75,0008.17
2022-10-16 15:04:00,,0835.6,5.00,0.00,29.6,28.1,00.0,38.4,31.4,17.8,0002.6,0013.61,0008.75,0008.18
2022-10-16 15:05:00,,0835.6,5.00,0.00,29.6,28.0,00.0,38.4,31.4,17.7,0002.3,0013.70,0008.77,0008.18
2022-10-16 15:06:00,,0835.6,5.00,0.00,29.6,28.0,00.0,38.4,31.4,17.8,0002.1,0013.63,0008.76,0008.17
2022-10-16 15:07:00,,0835.7,5.00,0.00,29.6,28.0,00.0,38.4,31.4,17.7,0001.9,0013.71,0008.80,0008.18
2022-10-16 15:08:00,,0835.6,5.00,0.00,29.6,28.0,00.0,38.4,31.4,17.8,0001.4,0013.76,0008.82,0008.19
2022-10-16 15:09:00,,0835.7,5.00,0.00,29.6,28.0,00.0,38.4,31.4,17.7,0001.4,0013.72,0008.81,0008.20
2022-10-16 15:10:00,,0835.7,5.01,0.00,29.6,28.0,00.0,38.4,31.3,17.7,0001.2,0013.57,0008.81,0008.19
2022-10-16 15:11:00,,0835.7,5.00,0.00,29.6,28.0,00.0,38.4,31.3,17.7,0000.8,0013.35,0008.77,0008.19
2022-10-16 15:12:00,,0835.6,5.00,0.00,29.6,28.0,00.0,38.4,31.4,17.7,0000.7,0013.64,0008.75,0008.19
2022-10-16 15:13:00,,0835.7,5.00,0.00,29.6,28.0,00.0,38.4,31.4,17.7,0000.5,0013.07,0008.77,0008.21
2022-10-16 15:14:00,,0835.7,5.00,0.00,29.6,28.0,00.0,38.4,31.4,17.8,0000.7,0013.05,0008.78,0008.22
2022-10-16 15:15:00,,0835.7,5.00,0.00,29.5,28.0,00.0,38.4,31.3,17.9,-000.2,0013.05,0008.77,0008.22
2022-10-16 15:16:00,,0835.7,5.00,0.00,29.5,28.0,00.0,38.4,31.4,18.0,0000.0,0013.17,0008.81,0008.23
2022-10-16 15:17:00,,0835.7,5.00,0.00,29.5,28.0,00.0,38.4,31.4,18.0,0000.1,0013.50,0008.81,0008.24
2022-10-16 15:18:00,,0835.6,5.00,0.00,29.5,28.0,00.0,38.4,31.4,18.1,0000.2,0014.28,0008.79,0008.24
2022-10-16 15:19:00,,0835.7,4.99,0.00,29.5,27.9,00.0,38.4,31.3,18.0,0000.9,0015.22,0008.79,0008.25
2022-10-16 15:20:00,,0835.7,5.00,0.00,29.5,27.9,00.0,38.4,31.3,17.8,0000.9,0015.71,0008.77,0008.25
2022-10-16 15:21:00,,0835.7,4.99,0.00,29.5,27.9,00.0,38.4,31.3,17.7,0000.7,0015.84,0008.75,0008.26
2022-10-16 15:22:00,,0835.7,5.00,0.00,29.5,27.8,00.0,38.4,31.3,17.8,0001.1,0015.53,0008.79,0008.27
2022-10-16 15:23:00,,0835.7,5.00,0.00,29.5,27.8,00.0,38.4,31.3,17.9,0000.9,0014.77,0008.80,0008.28
2022-10-16 15:24:00,,0835.7,5.01,0.00,29.5,27.9,00.0,38.3,31.3,18.0,0000.8,0014.79,0008.79,0008.28
2022-10-16 15:25:00,,0835.7,5.01,0.00,29.5,27.9,00.0,38.3,31.3,18.1,0000.9,0015.18,0008.80,0008.29
2022-10-16 15:26:00,,0835.8,5.00,0.00,29.5,27.9,00.0,38.3,31.3,18.1,0001.4,0015.11,0008.80,0008.30
2022-10-16 15:27:00,,0835.7,5.01,0.00,29.5,27.9,00.0,38.3,31.3,18.0,0001.3,0016.14,0008.77,0008.30
2022-10-16 15:28:00,,0835.7,5.00,0.00,29.5,27.9,00.0,38.3,31.3,18.0,0001.7,0015.99,0008.80,0008.34
2022-10-16 15:29:00,,0835.7,4.98,0.00,29.5,27.9,00.0,38.3,31.3,18.0,0002.2,0015.15,0008.84,0008.36
2022-10-16 15:30:00,,0835.7,5.00,0.00,29.5,27.9,00.0,38.3,31.2,18.0,0002.1,0014.69,0008.88,0008.39
2022-10-16 15:31:00,,0835.7,5.00,0.00,29.5,27.9,00.0,38.3,31.2,18.0,0001.9,0014.17,0008.92,0008.39
2022-10-16 15:32:00,,0835.8,5.00,0.00,29.5,27.9,00.0,38.3,31.3,18.1,0002.0,0013.82,0008.93,0008.40
2022-10-16 15:33:00,,0835.8,5.00,0.00,29.5,27.9,00.0,38.3,31.2,18.2,0001.7,0013.85,0008.93,0008.42
2022-10-16 15:34:00,,0835.8,5.01,0.00,29.4,27.9,00.0,38.3,31.2,18.2,0002.0,0014.92,0008.95,0008.42
2022-10-16 15:35:00,,0835.7,5.00,0.00,29.4,27.9,00.0,38.3,31.2,18.1,0002.0,0014.91,0008.95,0008.43
2022-10-16 15:36:00,,0835.7,5.00,0.00,29.4,27.9,00.0,38.3,31.2,18.0,0001.7,0014.58,0008.97,0008.45
2022-10-16 15:37:00,,0835.7,5.00,0.00,29.4,27.9,00.0,38.3,31.2,18.0,0001.3,0014.63,0008.98,0008.45
2022-10-16 15:38:00,,0835.6,5.00,0.00,29.4,27.8,00.0,38.3,31.2,18.0,0001.3,0013.69,0009.00,0008.46
2022-10-16 15:39:00,,0835.6,4.99,0.00,29.4,27.8,00.0,38.3,31.2,18.1,0000.7,0013.45,0008.97,0008.45
2022-10-16 15:40:00,,0835.6,4.99,0.00,29.4,27.8,00.0,38.3,31.2,18.2,0000.4,0013.39,0008.95,0008.44
2022-10-16 15:41:00,,0835.6,5.01,0.00,29.4,27.8,00.0,38.3,31.2,18.2,0000.2,0013.21,0008.95,0008.44
2022-10-16 15:42:00,,0835.6,5.00,0.00,29.4,27.7,00.0,38.2,31.2,18.3,0000.9,0012.98,0009.00,0008.46
2022-10-16 15:43:00,,0835.5,5.00,0.00,29.4,27.7,00.0,38.2,31.1,18.3,0001.0,0013.10,0009.05,0008.46
2022-10-16 15:44:00,,0835.6,5.00,0.00,29.4,27.7,00.0,38.2,31.1,18.3,0000.0,0013.05,0009.06,0008.46
2022-10-16 15:45:00,,0835.6,5.00,0.00,29.3,27.7,00.0,38.2,31.1,18.2,0000.0,0011.98,0009.06,0008.46
2022-10-16 15:46:00,,0835.6,5.01,0.00,29.3,27.7,00.0,38.2,31.1,18.2,0000.0,0012.07,0009.10,0008.47
2022-10-16 15:47:00,,0835.6,5.00,0.00,29.3,27.7,00.0,38.2,31.1,18.3,0000.0,0012.07,0009.10,0008.46
2022-10-16 15:48:00,,0835.6,5.00,0.00,29.3,27.6,00.0,38.2,31.1,18.3,0000.0,0012.06,0009.11,0008.47
2022-10-16 15:49:00,,0835.6,5.00,0.00,29.3,27.6,00.0,38.2,31.1,18.4,0000.0,0011.98,0009.10,0008.47
2022-10-16 15:50:00,,0835.6,5.00,0.00,29.3,27.6,00.0,38.2,31.1,18.4,0000.0,0012.68,0009.10,0008.48
2022-10-16 15:51:00,,0835.6,4.99,0.00,29.3,27.6,00.0,38.2,31.1,18.5,0000.0,0012.85,0009.11,0008.49
2022-10-16 15:52:00,,0835.6,5.00,0.00,29.3,27.6,00.0,38.2,31.1,18.5,0000.0,0012.94,0009.14,0008.50
2022-10-16 15:53:00,,0835.6,5.00,0.00,29.3,27.6,00.0,38.1,31.1,18.6,0000.7,0012.88,0009.10,0008.49
2022-10-16 15:54:00,,0835.6,5.00,0.00,29.2,27.6,00.0,38.1,31.0,18.6,0000.8,0012.88,0009.04,0008.47
2022-10-16 15:55:00,,0835.6,5.00,0.00,29.2,27.6,00.0,38.1,31.0,18.5,0000.6,0013.11,0009.01,0008.45
2022-10-16 15:56:00,,0835.6,5.00,0.00,29.2,27.5,00.0,38.1,31.0,18.5,0000.6,0013.23,0008.98,0008.43
2022-10-16 15:57:00,,0835.6,5.00,0.00,29.2,27.4,00.0,38.1,31.0,18.6,0000.3,0013.56,0008.93,0008.42
2022-10-16 15:58:00,,0835.6,5.00,0.00,29.2,27.4,00.0,38.1,31.0,18.4,0000.0,0013.56,0008.93,0008.43
2022-10-16 15:59:00,,0835.6,5.00,0.00,29.2,27.3,00.0,38.1,30.9,18.3,0000.0,0013.95,0008.94,0008.42
